Washington State Current Weather Observations

 
 ASUS46 KSEW 210010
 RWRWA 
 
 WASHINGTON REGIONAL WEATHER ROUNDUP
 NATIONAL WEATHER SERVICE SEATTLE WA
 500 PM PDT SUN AUG 20 2017
 
 NOTE:"FAIR" INDICATES FEW OR NO CLOUDS BELOW 12,000 FEET WITH NO 
 SIGNIFICANT WEATHER AND/OR OBSTRUCTIONS TO VISIBILITY.
 
 WAZ507-509-555>559-210100-
 SEATTLE, TACOMA, EVERETT, AND VICINITY
   
 CITY           SKY/WX    TMP DP  RH WIND       PRES   REMARKS
 EVERETT        MOSUNNY   67  55  65 NW9       30.14S                  
 6HR MIN TEMP:  63; 6HR MAX TEMP:  71;                                
 
 BOEING FIELD   PTSUNNY   75  52  44 NW7       30.10F                  
 6HR MIN TEMP:  67; 6HR MAX TEMP:  76;                                
 
 RENTON         PTSUNNY   76  53  44 NW14      30.09F                  
 6HR MIN TEMP:  67; 6HR MAX TEMP:  77;                                
 
 SEATAC AIRPORT PTSUNNY   76  48  37 N10       30.11F                  
 6HR MIN TEMP:  66; 6HR MAX TEMP:  77;                                
 
 JBLM-MCCHORD   PTSUNNY   77  54  45 N3        30.10F                  
 6HR MIN TEMP:  65; 6HR MAX TEMP:  77;                                
 
 PUYALLUP       FAIR      79  54  41 VRB5      30.11S                  
 BREMERTON      MOSUNNY   76  51  41 CALM      30.10F                  
 6HR MIN TEMP:  66; 6HR MAX TEMP:  78;                                
 
 JBLM-FT LEWIS  MOSUNNY   76  53  45 NW7       30.09F                  
 6HR MIN TEMP:  65; 6HR MAX TEMP:  76;                                
 
 TACOMA NARROWS PTSUNNY   72  48  42 VRB5      30.10F                  
 6HR MIN TEMP:  62; 6HR MAX TEMP:  73;                                
 
 
WAZ001-503-506-510-514-515-210100- NORTH INTERIOR CITY SKY/WX TMP DP RH WIND PRES REMARKS BELLINGHAM SUNNY 71 51 49 SE6 30.10S 6HR MIN TEMP: 62; 6HR MAX TEMP: 72; FRIDAY HARBOR SUNNY 61 55 81 SE6 30.12S 6HR MIN TEMP: 61; 6HR MAX TEMP: 68; EASTSOUND SUNNY 70 54 56 CALM 30.09F PORT ANGELES SUNNY 66 57 72 W12G22 30.14R 6HR MIN TEMP: 59; 6HR MAX TEMP: 67; EDIZ HOOK FAIR 60 55 83 W16 30.13S 6HR MIN TEMP: 56; 6HR MAX TEMP: 60; PORT TOWNSEND FAIR 66 57 72 NW10G17 30.13R NAS WHIDBEY MOSUNNY 64 53 67 SW10 30.16S 6HR MIN TEMP: 61; 6HR MAX TEMP: 66; ARLINGTON SUNNY 73 54 51 W14 30.12S 6HR MIN TEMP: 65; 6HR MAX TEMP: 74; BURLINGTON SUNNY 72 52 49 VRB6 30.12R
WAZ020-022-039-040-504-511-512-210100- SOUTHWEST INTERIOR CITY SKY/WX TMP DP RH WIND PRES REMARKS SHELTON SUNNY 77 52 41 VRB3 30.07F 6HR MIN TEMP: 67; 6HR MAX TEMP: 79; OLYMPIA MOSUNNY 76 52 43 N5 30.10F 6HR MIN TEMP: 65; 6HR MAX TEMP: 77; CHEHALIS FAIR 79 55 44 N7 30.09S KELSO PTSUNNY 78 59 51 W9 30.07F 6HR MIN TEMP: 65; 6HR MAX TEMP: 78; VANCOUVER CLOUDY 79 54 41 NW14G20 30.04F 6HR MIN TEMP: 64; 6HR MAX TEMP: 80; SCAPPOOSE, OR PTSUNNY 79 52 38 N14G21 30.04F 6HR MIN TEMP: 69; 6HR MAX TEMP: 81; PORTLAND, OR CLOUDY 79 53 40 NW10 30.04F 6HR MIN TEMP: 62; 6HR MAX TEMP: 81;
WAZ021-516-517-210100- WASHINGTON COAST CITY SKY/WX TMP DP RH WIND PRES REMARKS FORKS MOSUNNY 69 58 67 NW10 30.14F 6HR MIN TEMP: 61; 6HR MAX TEMP: 71; HOQUIAM SUNNY 70 58 65 W15G24 30.13S 6HR MIN TEMP: 61; 6HR MAX TEMP: 72; ASTORIA, OR MOSUNNY 68 58 70 NW16 30.12F 6HR MIN TEMP: 64; 6HR MAX TEMP: 69;
WAZ019-023-024-040-567>569-210100- CASCADE MOUNTAINS AND COLUMBIA GORGE CITY SKY/WX TMP DP RH WIND PRES REMARKS STAMPEDE PASS CLOUDY 62 45 53 VRB7 30.17S 6HR MIN TEMP: 60; 6HR MAX TEMP: 66; TROUTDALE, OR CLOUDY 81 52 36 VRB5 30.03F 6HR MIN TEMP: 64; 6HR MAX TEMP: 81; HOOD RIVER, OR CLOUDY 77 54 44 CALM 29.99S THE DALLES, OR CLOUDY 82 53 36 NW14 29.94F 6HR MIN TEMP: 71; 6HR MAX TEMP: 87;
WAZ026-027-041>044-520-521-210100- EAST SLOPES CITY SKY/WX TMP DP RH WIND PRES REMARKS OMAK PTSUNNY 85 38 18 E3 29.96F 6HR MIN TEMP: 76; 6HR MAX TEMP: 86; WENATCHEE CLOUDY 80 43 26 E10 29.96S 6HR MIN TEMP: 74; 6HR MAX TEMP: 84; ELLENSBURG CLOUDY 82 50 32 W7 30.00F 6HR MIN TEMP: 79; 6HR MAX TEMP: 83; YAKIMA CLOUDY 85 44 23 CALM 29.98F 6HR MIN TEMP: 75; 6HR MAX TEMP: 87; SUNNYSIDE ARPT NOT AVBL YAKIMA TC FAIR 82 39 21 NW3 29.97F 6HR MIN TEMP: 74; 6HR MAX TEMP: 85;
WAZ028-034-035-210100- COLUMBIA BASIN CITY SKY/WX TMP DP RH WIND PRES REMARKS EPHRATA CLOUDY 82 36 19 S8 29.98F 6HR MIN TEMP: 75; 6HR MAX TEMP: 83; MOSES LAKE CLOUDY 83 41 22 S7 29.99F 6HR MIN TEMP: 74; 6HR MAX TEMP: 83; PASCO CLOUDY 85 44 23 NE6 29.96F 6HR MIN TEMP: 75; 6HR MAX TEMP: 86; RICHLAND ARPT CLOUDY 86 38 18 SE3 29.96S 6HR MIN TEMP: 77; 6HR MAX TEMP: 88; HERMISTON, OR PTSUNNY 85 45 24 VRB6 29.97S 6HR MIN TEMP: 74; 6HR MAX TEMP: 87;
WAZ036>038-210100- NORTHEAST WASHINGTON CITY SKY/WX TMP DP RH WIND PRES REMARKS SPOKANE GEIGER CLOUDY 79 35 20 SW10 30.03S 6HR MIN TEMP: 70; 6HR MAX TEMP: 80; SPOKANE FELTS PTSUNNY 81 36 19 W8 30.01F 6HR MIN TEMP: 74; 6HR MAX TEMP: 83; FAIRCHILD AFB CLOUDY 78 35 21 W7 30.03F 6HR MIN TEMP: 71; 6HR MAX TEMP: 80; COEURDALENE,ID PTSUNNY 80 40 23 SW6 30.03F 6HR MIN TEMP: 70; 6HR MAX TEMP: 81; DEER PARK PTSUNNY 81 35 19 S9 30.01F 6HR MIN TEMP: 68; 6HR MAX TEMP: 82;
WAZ029>033-210100- SOUTHEAST WASHINGTON CITY SKY/WX TMP DP RH WIND PRES REMARKS PULLMAN PTSUNNY 78 37 22 NW7 30.06F 6HR MIN TEMP: 72; 6HR MAX TEMP: 78; LEWISTON, ID PTSUNNY 85 39 19 CALM 29.98F 6HR MIN TEMP: 71; 6HR MAX TEMP: 86; WALLA WALLA PTSUNNY 83 41 22 SW8 29.99F 6HR MIN TEMP: 74; 6HR MAX TEMP: 84; PENDLETON, OR PTSUNNY 82 39 21 NW8 30.00F 6HR MIN TEMP: 75; 6HR MAX TEMP: 84;

Data from: http://www.wrh.noaa.gov/sew/get.php?pil=RWR&sid=WA&version=0&format=printer

Current Observations

Current Weather Conditions by Major Highway
Washington State Current Weather Observations   …  Oregon State Current Weather Observation



48 Hour Forecast


Seattle  …  Vancouver  …  Portland
————————————————————————————————————————
Bend  …  Spokane  …  Richland  …  Pendleton  …  Blue Mountains I-84  …  Yakima
————————————————————————————————————————
Goldendale, Washington Higher Elevations  …  Dallesport Airport - Goldendale  …  Bingen - White Salmon - Hood River  …  Index





Top of Page